Location: Bonningues
(50.7927°N, 2.0150°E)
Time: 23:57:20
(UTC+00:00)

Okean 1 - Pass Details

Date: 08 August 2020
Orbit: 539 x 555 km, 82.5° (Epoch: 23 September)

Event Time Altitude Azimuth Distance (km) Brightness Sun altitude
Rises 21:57:59 0° 345° (NNW) 2,740 8.3 -18.4°
Reaches altitude 10° 22:00:12 10° 339° (NNW) 1,843 7.2 -18.6°
Maximum altitude 22:04:06 47° 266° (W) 737 4.1 -18.9°
Enters shadow 22:05:45 29° 210° (SSW) 1,025 4.4 -19.1°
